[Iaude] MPEC P58: 2018 PM10 [a=1.78,e=0.43,i=9.2,H=27.0]

mpec at mpcdb1.cfa.harvard.edu mpec at mpcdb1.cfa.harvard.edu
Sat Aug 11 17:13:16 EDT 2018


M.P.E.C. 2018-P58                                Issued 2018 Aug. 11, 21:09 UT
 
     The Minor Planet Electronic Circulars contain information on unusual
         minor planets and routine data on comets.  They are published
    on behalf of Division F of the International Astronomical Union by the
          Minor Planet Center, Smithsonian Astrophysical Observatory,
                          Cambridge, MA 02138, U.S.A.

             Prepared using the Tamkin Foundation Computer Network

                              MPC at CFA.HARVARD.EDU
            URL https://www.minorplanetcenter.net/    ISSN 1523-6714


                                   2018 PM10
 
Observations:
     K18P10M* C2018 08 09.44185 20 36 15.10 -39 25 27.7          18.3 VmEP058Q66
     K18P10M  C2018 08 09.44323 20 36 19.97 -39 23 55.0          18.3 VmEP058Q66
     K18P10M  C2018 08 10.47483 21 36 41.02 -14 02 10.3          17.9 VmEP058Q66
     K18P10M  C2018 08 10.47622 21 36 45.23 -13 59 46.2          17.9 VmEP058Q66
     K18P10M  C2018 08 10.51685 21 38 44.97 -12 50 38.1          18.2 VmEP058Q66
     K18P10M  C2018 08 10.51754 21 38 46.84 -12 49 27.2          18.2 VmEP058Q66
     K18P10M  C2018 08 10.57596 21 41 49.18 -11 27 54.9          17.0 RrEP058P93
     K18P10M  C2018 08 10.57653 21 41 50.79 -11 26 56.1          17.0 RrEP058P93
     K18P10M  C2018 08 10.57710 21 41 52.43 -11 25 57.7          17.6 RrEP058P93
     K18P10M  C2018 08 10.57767 21 41 54.09 -11 24 58.8          17.1 RrEP058P93
     K18P10M [C2018 08 10.61811 21 43 32.88 -09 56 42.8          17.0 GVEP058Q62
     K18P10M [C2018 08 10.61974 21 43 37.43 -09 53 54.3          17.2 GVEP058Q62
     K18P10M [C2018 08 10.62117 21 43 41.46 -09 51 24.6          16.9 GVEP058Q62
     K18P10M [C2018 08 10.62227 21 43 44.51 -09 49 31.9          17.1 GVEP058Q62
     K18P10M  C2018 08 10.62937 21 44 04.62 -09 37 16.4          17.6 VmEP058Q66
     K18P10M  C2018 08 10.63076 21 44 08.44 -09 34 54.5          17.6 VmEP058Q66
     K18P10M KC2018 08 10.86447 21 56 49.25 -03 16 11.4          17.1 VtEP058L04
     K18P10M KC2018 08 10.86763 21 56 58.02 -03 10 51.8          18.0 VtEP058L04
     K18P10M KC2018 08 10.87309 21 57 13.15 -03 01 38.0          17.3 VtEP058L04
     K18P10M KC2018 08 10.88275 21 57 39.78 -02 45 21.5          17.2 VtEP058L04
     K18P10M KC2018 08 10.88573 21 57 47.98 -02 40 20.6          17.1 VtEP058L04
     K18P10M KC2018 08 10.90102721 58 37.85 -02 14 17.0          17.7 GVEP058L01
     K18P10M KC2018 08 10.90217221 58 40.98 -02 12 21.9          17.7 GVEP058L01
     K18P10M KC2018 08 10.90362321 58 44.98 -02 09 55.8          17.8 GVEP058L01
     K18P10M KC2018 08 10.90456121 58 47.52 -02 08 21.5          17.7 GVEP058L01
     K18P10M KC2018 08 10.91372921 59 19.53 -01 53 59.2          17.2 GVEP058J69
     K18P10M KC2018 08 10.91721821 59 29.26 -01 48 09.1          17.2 GVEP058J69
     K18P10M KC2018 08 10.92064621 59 38.73 -01 42 24.8          16.9 GVEP058J69
     K18P10M KC2018 08 10.92409121 59 48.34 -01 36 39.7          17.1 GVEP058J69
     K18P10M KC2018 08 10.92754921 59 57.91 -01 30 52.9          17.0 GVEP058J69
     K18P10M KC2018 08 10.93475122 00 17.66 -01 19 00.9          17.3 G EP058J95
     K18P10M KC2018 08 10.93770122 00 25.79 -01 14 05.7          17.3 G EP058J95
     K18P10M KC2018 08 10.94085522 00 34.48 -01 08 50.0          17.4 G EP058J95
     K18P10M KC2018 08 10.95163 22 00 57.83 -00 49 24.2          16.5 RVEP058K63
     K18P10M KC2018 08 10.95311 22 01 01.78 -00 46 56.0          16.4 RVEP058K63
     K18P10M KC2018 08 10.95459 22 01 05.73 -00 44 28.8          16.6 RVEP058K63
     K18P10M KC2018 08 10.95606 22 01 09.71 -00 42 01.3          16.7 RVEP058K63
     K18P10M KC2018 08 10.95660 22 01 10.83 -00 41 04.8          17.2 RqEP058160
     K18P10M KC2018 08 10.95763 22 01 13.56 -00 39 22.5          16.7 RqEP058160
     K18P10M KC2018 08 10.95763 22 01 13.84 -00 39 25.9          16.6 RVEP058K63
     K18P10M KC2018 08 10.95864 22 01 16.25 -00 37 42.2          16.6 RqEP058160
     K18P10M KC2018 08 10.95961 22 01 18.84 -00 36 04.9          17.0 RqEP058160
     K18P10M KC2018 08 10.95962 22 01 26.71 -00 37 29.0          17.4 GVEP058J77
     K18P10M KC2018 08 10.96059 22 01 21.46 -00 34 27.8          16.9 RqEP058160
     K18P10M KC2018 08 10.96170 22 01 32.37 -00 34 02.2          17.4 GVEP058J77
     K18P10M KC2018 08 10.96230 22 01 26.01 -00 31 38.7          17.3 GVEP058104
     K18P10M KC2018 08 10.96484 22 01 40.90 -00 28 49.8          17.2 GVEP058J77
     K18P10M KC2018 08 10.96516 22 01 33.64 -00 26 53.3          17.1 GVEP058104
     K18P10M KC2018 08 10.96796 22 01 49.35 -00 23 39.3          17.2 GVEP058J77
     K18P10M KC2018 08 10.96803 22 01 41.26 -00 22 08.3          17.3 GVEP058104
     K18P10M KC2018 08 10.98868 22 02 43.57 +00 10 30.7          17.1 GVEP058Z80
     K18P10M KC2018 08 10.99212 22 02 52.91 +00 16 11.0          17.6 GVEP058Z80
     K18P10M KC2018 08 10.99775 22 03 07.92 +00 25 29.1          17.5 GVEP058Z80
     K18P10M KC2018 08 11.00120 22 03 17.18 +00 31 10.8          17.8 GVEP058Z80
     K18P10M KC2018 08 11.00717 22 03 33.13 +00 40 58.4          17.5 GVEP058Z80
     K18P10M KC2018 08 11.01016 22 03 41.10 +00 45 54.0          17.5 GVEP058Z80
     K18P10M KC2018 08 11.10146 22 07 31.68 +03 15 16.5          17.0 RVEP058K51
     K18P10M KC2018 08 11.10265 22 07 34.81 +03 17 10.8          16.6 RVEP058K51
     K18P10M KC2018 08 11.10384 22 07 37.94 +03 19 04.8          16.7 RVEP058K51
     K18P10M KC2018 08 11.11661 22 09 16.96 +04 00 45.6          17.5 VUEP058I19
     K18P10M KC2018 08 11.11695 22 08 23.80 +03 38 58.3          17.8 GVEP058J95
     K18P10M KC2018 08 11.11768 22 09 19.69 +04 02 27.8          17.6 VUEP058I19
     K18P10M KC2018 08 11.11803 22 09 20.59 +04 03 01.7          17.8 VUEP058I19
     K18P10M KC2018 08 11.12384 22 08 41.96 +03 49 57.4          17.7 GVEP058J95
     K18P10M KC2018 08 11.13113 22 09 01.13 +04 01 32.0          18.0 GVEP058J95
     K18P10M KC2018 08 11.82517 22 40 23.35 +20 04 44.3          17.6 RqEP058K61
     K18P10M KC2018 08 11.82598 22 40 25.23 +20 05 42.1          17.6 RqEP058K61
     K18P10M KC2018 08 11.82760 22 40 28.93 +20 07 36.9          17.9 RqEP058K61
     K18P10M KC2018 08 11.82776 22 40 29.33 +20 07 48.7          17.9 RqEP058K61
 
Observer details:
104 San Marcello Pistoiese.  Observers P. Bacci, M. Maestripieri, M. D. Grazia.
    Measurers P. Bacci, L. Tesi, G. Fagioli.  0.6-m f/4.0 reflector + CCD.
160 Castelmartini.  Observers M. Jaeger, E. Prosperi, S. Prosperi, W. Vollmann.
    Measurer E. Prosperi.  0.35-m f/10 Schmidt-Cassegrain + CCD.
I19 Observatorio El Gato Gris, Tanti.  Observer C. Colazo.  0.36-m f/10.70
    Schmidt-Cassegrain + CCD.
J69 North Observatory, Clanfield.  Observer D. Briggs.  0.41-m f/4.5 Newtonian
    reflector + CCD.
J77 Golden Hill Observatory, Stourton Caundle.  Observer R. Miles.  0.35-m f/8
    Schmidt-Cassegrain + CCD.
J95 Great Shefford.  Observer P. Birtwhistle.  0.41-m f/6.3 Schmidt-Cassegrain
    + CCD.
K51 Osservatorio del Celado, Castello Tesino.  Observer M. Campestrin.  0.80-m
    f/4 reflector + CCD.
K61 Rokycany Observatory.  Observer M. Adamovsky.  0.51-m f/6.8 reflector
    + CCD.
K63 G. Pascoli Observatory, Castelvecchio Pascoli.  Observer R. Bacci.  0.41-m
    f/3.2 Newtonian reflector + CCD.
L01 Visnjan Observatory, Tican.  Observers K. Korlevic, D. Ivanic, M. Rakitic,
    L. Gelo, J. Minic, F. Hrzenjak, E. Pettarin.  Measurers J. Minic,
    M. Rakitic.  1.0-m f/2.9 reflector + CCD.
L04 ROASTERR-1 Observatory, Cluj-Napoca.  Observer L. Hudin.  0.3-m f/5
    reflector + CCD.
P93 Space Tracking and Communications Center, JAXA.  Observers K. Nishiyama,
    T. Nimura.  1.0-m f/3.0 reflector + CCD.
Q62 iTelescope Observatory, Siding Spring.  Observer M. Suzuki.  0.43-m f/6.8
    reflector + CCD.
Q66 Siding Spring-Janess-G, JAXA.  Observers T. Yanagisawa, H. Kurosaki,
    K. Kamiya, H. Onodera.  0.25-m f/2.8 reflector + CCD.
Z80 Northolt Branch Observatory.  Observer G. Wells.  Measurer D. Bamberger.
    0.25-m f/8.0 Ritchey-Chretien + CCD.
 
Orbital elements:
2018 PM10                                                Earth MOID = 0.0080 AU
Epoch 2018 Mar. 23.0 TT = JDT 2458200.5                 MPC
M 299.63235              (2000.0)            P               Q
n   0.41385357     Peri.    6.13329     +0.80528876     +0.58297287
a   1.7833568      Node   317.59474     -0.55053589     +0.66769645
e   0.4279178      Incl.    9.21105     -0.22004602     +0.46295149
P   2.38           H   27.0           G   0.15           U   5
Residuals in seconds of arc
180809 Q66(10.9-  3.1-)   180810 L01  0.1-  0.1+    180810 J77  0.1-  0.4+
180809 Q66 (8.8-  2.7-)   180810 L01  0.5-  0.1-    180810 104  0.4+  1.3+
180810 Q66 (0.4-  3.7-)   180810 J69 (1.5+  3.8+)   180810 J77  0.3-  0.4+
180810 Q66  0.4+  0.9-    180810 J69 (1.6+  3.5+)   180810 104  0.3+  0.4+
180810 Q66  0.4+  0.7+    180810 J69 (0.6+  3.7+)   180810 Z80  0.8-  0.2-
180810 Q66  1.6-  0.9+    180810 J69 (1.4+  3.3+)   180810 Z80  0.8+  0.7-
180810 P93  0.1+  0.4-    180810 J69 (1.3+  3.4+)   180810 Z80  0.5-  0.3+
180810 P93  0.3-  0.2-    180810 J95  0.2-  0.1-    180811 Z80  0.0   0.9+
180810 P93  0.3-  0.4-    180810 J95  0.3-  0.2-    180811 Z80  0.1-  1.0-
180810 P93  0.1+  0.1-    180810 J95  0.1-  0.0     180811 Z80  0.2-  0.4-
180810 Q62  0.1-  0.5-    180810 K63  0.1-  0.4+    180811 K51  0.3+  0.0
180810 Q62  0.3-  0.8-    180810 K63  0.1-  0.8+    180811 K51  0.3+  0.0
180810 Q62  0.1+  0.8+    180810 K63  0.2-  0.2+    180811 K51  0.2+  0.3-
180810 Q62  0.4-  0.4-    180810 K63  0.7+  0.9+    180811 I19  0.2+  1.3+
180810 Q66  3.1+  0.3-    180810 160  0.2-  0.2+    180811 J95  0.1-  0.6-
180810 Q66 (2.0+  2.4-)   180810 160  0.5-  0.3-    180811 I19  0.0   0.9+
180810 L04  0.4+  0.0     180810 K63  0.2-  0.3-    180811 I19  0.1+  1.3+
180810 L04  0.4+  0.3-    180810 160  0.5-  0.8-    180811 J95  0.5+  0.2-
180810 L04  0.5+  1.0+    180810 160  0.4-  0.2-    180811 J95  0.2+  0.8-
180810 L04  0.2+  1.0+    180810 J77  0.1-  1.3+    180811 K61  0.1-  0.5+
180810 L04  0.4+  0.9+    180810 160  0.2-  0.9-    180811 K61  0.1+  0.5+
180810 L01  0.3-  0.3+    180810 J77  0.1-  0.8+    180811 K61  0.4-  0.3-
180810 L01  0.5-  0.1+    180810 104  0.0   0.9+    180811 K61  0.0   0.1+

Ephemeris:
2018 PM10                a,e,i = 1.78, 0.43, 9                   q = 1.0202
Date    TT    R. A. (2000) Decl.     Delta      r     Elong.  Phase     V
2018 07 12    15 07 23.2 -64 30 22   0.1314  1.0898   120.9    53.2    24.7
...
2018 07 27    15 22 18.3 -65 22 31   0.06613 1.0438   113.6    63.1    23.4
...
2018 08 04    16 38 27.3 -65 33 46   0.03092 1.0287   116.4    62.1    21.7
...
2018 08 10    21 09 03.5 -27 01 44   0.0086841.0223   168.5    11.4    17.4
2018 08 11    22 03 02.7 +00 41 17   0.0084561.0216   161.0    18.9    17.6
2018 08 12    22 46 34.1 +23 27 43   0.01042 1.0210   136.6    43.0    18.8
...
2018 08 18    00 43 10.8 +55 20 38   0.03437 1.0201   102.2    75.9    22.4
...
2018 08 26    01 22 34.8 +59 41 41   0.06931 1.0257   100.6    75.6    23.9
...
2018 09 10    01 38 13.2 +60 43 38   0.1323  1.0561   108.3    64.9    25.0

A. U. Tomatic                (C) Copyright 2018 MPC           M.P.E.C. 2018-P58



More information about the Iaude mailing list